| time (UTC) | temp F | wind direction | speed MPH | gust MPH | rain 1hr in | rain 24hr in | rain mn in | humidity % | barometer mb |
| 20260508124507 | 68 | 354 | 1.0 | 5.0 | 0.00 | 0.00 | 0.00 | 87 | 1012.4 |
| 20260508123058 | 68 | 65 | 2.0 | 7.0 | 0.00 | 0.00 | 0.00 | 86 | 1012.1 |
| 20260508121517 | 68 | 44 | 3.0 | 7.0 | 0.00 | 0.00 | 0.00 | 87 | 1012.4 |
| 20260508120059 | 68 | 38 | 4.0 | 7.0 | 0.00 | 0.00 | 0.00 | 87 | 1012.4 |
| 20260508114527 | 67 | 39 | 5.0 | 8.0 | 0.00 | 0.00 | 0.00 | 88 | 1012.3 |
| 20260508113112 | 67 | 330 | 2.0 | 7.0 | 0.00 | 0.00 | 0.00 | 88 | 1012.2 |
| 20260508111546 | 67 | 78 | 4.0 | 8.0 | 0.00 | 0.00 | 0.00 | 89 | 1011.9 |
| 20260508110025 | 68 | 30 | 3.0 | 6.0 | 0.00 | 0.00 | 0.00 | 89 | 1012.2 |
| 20260508104600 | 68 | 9 | 3.0 | 7.0 | 0.00 | 0.00 | 0.00 | 89 | 1012.2 |
| 20260508103032 | 68 | 360 | 2.0 | 6.0 | 0.00 | 0.00 | 0.00 | 90 | 1011.7 |
| 20260508101617 | 68 | 1 | 3.0 | 7.0 | 0.00 | 0.00 | 0.00 | 90 | 1011.9 |
| 20260508100046 | 68 | 57 | 2.0 | 7.0 | 0.00 | 0.00 | 0.00 | 90 | 1012.0 |
| 20260508094513 | 68 | 84 | 4.0 | 10.0 | 0.00 | 0.00 | 0.00 | 89 | 1011.5 |
| 20260508093058 | 68 | 72 | 4.0 | 10.0 | 0.00 | 0.00 | 0.00 | 88 | 1011.7 |
| 20260508091552 | 69 | 94 | 5.0 | 8.0 | 0.00 | 0.00 | 0.00 | 86 | 1011.8 |
| 20260508090022 | 69 | 75 | 4.0 | 7.0 | 0.00 | 0.00 | 0.00 | 85 | 1012.1 |
| 20260508084552 | 69 | 6 | 3.0 | 8.0 | 0.00 | 0.00 | 0.00 | 84 | 1012.1 |
| 20260508083025 | 69 | 65 | 1.0 | 7.0 | 0.00 | 0.00 | 0.00 | 83 | 1012.2 |
| 20260508081606 | 69 | 23 | 4.0 | 9.0 | 0.00 | 0.00 | 0.00 | 83 | 1012.0 |
| 20260508080047 | 70 | 360 | 3.0 | 5.0 | 0.00 | 0.00 | 0.00 | 82 | 1012.1 |
| 20260508074519 | 70 | 8 | 3.0 | 6.0 | 0.00 | 0.00 | 0.00 | 82 | 1012.4 |
| 20260508073103 | 70 | 58 | 0.0 | 5.0 | 0.00 | 0.00 | 0.00 | 82 | 1012.3 |
| 20260508071535 | 70 | 70 | 3.0 | 6.0 | 0.00 | 0.00 | 0.00 | 82 | 1012.2 |
| 20260508070005 | 70 | 63 | 3.0 | 6.0 | 0.00 | 0.00 | 0.00 | 81 | 1012.2 |
| 20260508064543 | 70 | 51 | 2.0 | 6.0 | 0.00 | 0.00 | 0.00 | 81 | 1012.2 |
| 20260508063015 | 71 | 58 | 2.0 | 7.0 | 0.00 | 0.00 | 0.00 | 80 | 1012.4 |
| 20260508061604 | 71 | 24 | 3.0 | 6.0 | 0.00 | 0.00 | 0.00 | 80 | 1012.6 |
| 20260508060035 | 71 | 91 | 4.0 | 8.0 | 0.00 | 0.00 | 0.00 | 1012.7 | |
| 20260508054610 | 71 | 72 | 4.0 | 10.0 | 0.00 | 0.00 | 0.00 | 79 | 1012.5 |
| 20260508053101 | 71 | 44 | 3.0 | 7.0 | 0.00 | 0.00 | 0.00 | 79 | 1012.5 |
| 20260508051513 | 72 | 80 | 2.0 | 8.0 | 0.00 | 0.00 | 0.00 | 78 | 1012.4 |
| 20260508050059 | 72 | 13 | 4.0 | 9.0 | 0.00 | 0.00 | 0.00 | 78 | 1012.2 |
| 20260508044530 | 72 | 77 | 4.0 | 9.0 | 0.00 | 0.00 | 0.00 | 77 | 1012.4 |
| 20260508043111 | 73 | 64 | 5.0 | 9.0 | 0.00 | 0.00 | 0.00 | 76 | 1012.5 |
| 20260508041614 | 73 | 87 | 4.0 | 12.0 | 0.00 | 0.00 | 0.00 | 77 | 1012.5 |
| 20260508040027 | 73 | 87 | 4.0 | 13.0 | 0.00 | 0.00 | 0.00 | 78 | 1012.3 |
| 20260508034612 | 73 | 97 | 3.0 | 10.0 | 0.00 | 0.00 | 0.00 | 77 | 1012.7 |
| 20260508033035 | 74 | 39 | 4.0 | 11.0 | 0.00 | 0.00 | 0.00 | 76 | 1013.1 |
| 20260508031505 | 74 | 10 | 2.0 | 6.0 | 0.00 | 0.00 | 0.00 | 75 | 1013.2 |
| 20260508030049 | 75 | 15 | 3.0 | 9.0 | 0.00 | 0.00 | 0.00 | 74 | 1013.1 |
| 20260508024530 | 75 | 79 | 4.0 | 9.0 | 0.00 | 0.00 | 0.00 | 73 | 1012.9 |
| 20260508023109 | 75 | 51 | 5.0 | 9.0 | 0.00 | 0.00 | 0.00 | 72 | 1013.0 |
| 20260508021538 | 75 | 41 | 2.0 | 6.0 | 0.00 | 0.00 | 0.00 | 72 | 1013.0 |
| 20260508020005 | 75 | 66 | 4.0 | 8.0 | 0.00 | 0.00 | 0.00 | 72 | 1012.7 |
| 20260508014547 | 76 | 96 | 4.0 | 7.0 | 0.00 | 0.00 | 0.00 | 72 | 1012.7 |
| 20260508013016 | 76 | 60 | 3.0 | 7.0 | 0.00 | 0.00 | 0.00 | 73 | 1012.7 |
| 20260508011601 | 76 | 65 | 2.0 | 9.0 | 0.00 | 0.00 | 0.00 | 74 | 1012.9 |
| 20260508010030 | 76 | 12 | 2.0 | 7.0 | 0.00 | 0.00 | 0.00 | 75 | 1013.0 |
| 20260508004501 | 76 | 2 | 4.0 | 9.0 | 0.00 | 0.00 | 0.00 | 75 | 1012.6 |
| 20260508003046 | 76 | 42 | 2.0 | 9.0 | 0.00 | 0.00 | 0.00 | 75 | 1012.6 |
| 20260508001513 | 77 | 46 | 5.0 | 10.0 | 0.00 | 0.00 | 0.00 | 75 | 1012.6 |
| 20260508000057 | 77 | 74 | 2.0 | 6.0 | 0.00 | 0.00 | 0.00 | 75 | 1012.8 |
| 20260507234529 | 77 | 354 | 3.0 | 11.0 | 0.00 | 0.00 | 0.00 | 75 | 1012.6 |
| 20260507233115 | 77 | 11 | 5.0 | 8.0 | 0.00 | 0.00 | 0.00 | 74 | 1012.5 |
| 20260507231549 | 77 | 32 | 4.0 | 9.0 | 0.00 | 0.00 | 0.00 | 75 | 1012.6 |
| 20260507230022 | 77 | 14 | 5.0 | 12.0 | 0.00 | 0.00 | 0.00 | 73 | 1012.3 |
| 20260507224601 | 78 | 359 | 5.0 | 10.0 | 0.00 | 0.00 | 0.00 | 73 | 1012.3 |
| 20260507223034 | 78 | 37 | 4.0 | 9.0 | 0.00 | 0.00 | 0.00 | 73 | 1012.2 |
| 20260507221503 | 78 | 49 | 3.0 | 8.0 | 0.00 | 0.00 | 0.00 | 74 | 1012.2 |
| 20260507220043 | 78 | 96 | 3.0 | 9.0 | 0.00 | 0.00 | 0.00 | 74 | 1012.4 |
| 20260507214513 | 78 | 1 | 4.0 | 10.0 | 0.00 | 0.00 | 0.00 | 73 | 1012.4 |
| 20260507213103 | 77 | 77 | 6.0 | 13.0 | 0.00 | 0.00 | 0.00 | 74 | 1012.4 |
| 20260507211527 | 78 | 69 | 5.0 | 12.0 | 0.00 | 0.00 | 0.00 | 74 | 1012.7 |
| 20260507210111 | 78 | 52 | 5.0 | 11.0 | 0.00 | 0.00 | 0.00 | 73 | 1012.7 |
| 20260507204527 | 77 | 63 | 3.0 | 10.0 | 0.00 | 0.00 | 0.00 | 73 | 1012.9 |
| 20260507203104 | 77 | 47 | 5.0 | 9.0 | 0.00 | 0.00 | 0.00 | 74 | 1013.3 |
| 20260507201539 | 77 | 352 | 5.0 | 10.0 | 0.00 | 0.00 | 0.00 | 74 | 1013.1 |
| 20260507200012 | 76 | 19 | 6.0 | 12.0 | 0.00 | 0.00 | 0.00 | 74 | 1013.2 |
| 20260507194611 | 75 | 44 | 4.0 | 15.0 | 0.00 | 0.00 | 0.00 | 75 | 1013.5 |
| 20260507193015 | 75 | 1 | 6.0 | 13.0 | 0.00 | 0.00 | 0.00 | 75 | 1013.8 |
| 20260507191551 | 75 | 42 | 8.0 | 14.0 | 0.00 | 0.00 | 0.00 | 75 | 1014.0 |
| 20260507190014 | 75 | 338 | 5.0 | 12.0 | 0.00 | 0.00 | 0.00 | 75 | 1014.1 |
| 20260507184555 | 73 | 348 | 6.0 | 13.0 | 0.00 | 0.00 | 0.00 | 77 | 1014.2 |
| 20260507183034 | 73 | 11 | 7.0 | 13.0 | 0.00 | 0.00 | 0.00 | 76 | 1014.2 |
| 20260507181616 | 73 | 359 | 3.0 | 9.0 | 0.00 | 0.00 | 0.00 | 77 | 1014.5 |
| 20260507180037 | 71 | 37 | 5.0 | 10.0 | 0.00 | 0.00 | 0.00 | 78 | 1014.7 |
| 20260507174504 | 71 | 53 | 5.0 | 11.0 | 0.00 | 0.00 | 0.00 | 78 | 1014.8 |
| 20260507173119 | 70 | 30 | 4.0 | 11.0 | 0.00 | 0.00 | 0.00 | 81 | 1015.1 |
| 20260507171538 | 69 | 48 | 5.0 | 10.0 | 0.00 | 0.00 | 0.00 | 81 | 1015.2 |
| 20260507170117 | 68 | 359 | 2.0 | 10.0 | 0.00 | 0.00 | 0.00 | 82 | 1015.3 |
| 20260507164538 | 68 | 12 | 4.0 | 11.0 | 0.00 | 0.00 | 0.00 | 82 | 1015.3 |
| 20260507163113 | 67 | 1 | 3.0 | 9.0 | 0.00 | 0.00 | 0.00 | 84 | 1015.0 |
| 20260507161555 | 65 | 21 | 7.0 | 12.0 | 0.00 | 0.00 | 0.00 | 85 | 1014.8 |
| 20260507160005 | 64 | 350 | 5.0 | 10.0 | 0.00 | 0.00 | 0.00 | 85 | 1015.1 |
| 20260507154545 | 64 | 37 | 5.0 | 12.0 | 0.00 | 0.00 | 0.00 | 86 | 1015.3 |
| 20260507153012 | 64 | 31 | 4.0 | 12.0 | 0.00 | 0.00 | 0.00 | 86 | 1015.3 |
| 20260507151559 | 64 | 345 | 5.0 | 10.0 | 0.00 | 0.00 | 0.00 | 86 | 1015.3 |
| 20260507150024 | 64 | 343 | 4.0 | 11.0 | 0.00 | 0.00 | 0.00 | 86 | 1015.4 |
| 20260507144604 | 64 | 38 | 4.0 | 15.0 | 0.00 | 0.00 | 0.00 | 86 | 1014.9 |
| 20260507143031 | 63 | 28 | 4.0 | 17.0 | 0.00 | 0.00 | 0.00 | 87 | 1014.8 |
| 20260507141636 | 63 | 34 | 6.0 | 16.0 | 0.00 | 0.00 | 0.00 | 87 | 1014.8 |
| 20260507140041 | 64 | 32 | 7.0 | 15.0 | 0.00 | 0.00 | 0.00 | 87 | 1014.8 |
| 20260507134515 | 64 | 13 | 6.0 | 12.0 | 0.00 | 0.00 | 0.00 | 87 | 1015.0 |
| 20260507133049 | 64 | 298 | 4.0 | 13.0 | 0.00 | 0.00 | 0.00 | 87 | 1015.0 |
| 20260507131530 | 64 | 335 | 8.0 | 16.0 | 0.00 | 0.00 | 0.00 | 87 | 1015.1 |
| 20260507130106 | 65 | 343 | 7.0 | 13.0 | 0.00 | 0.00 | 0.00 | 87 | 1015.1 |